Voltar ao catálogo

ARIANE 44L DEB

AtivoHEO
NORAD 24751·DEBRIS·🇫🇷 France

Lançado Jan 15, 1991 de Guiana Space Centre

Loading…

Próximas Passagens (próximas 24 horas)

TLE

AtualizadoSource: Space-Track

Época: Sep 12, 2026, 23:36 UTC

1 24751U 91003K   26255.98353742  .00000011  00000-0  22429-3 0  9997
2 24751   7.8947 119.8251 6164265 281.7465  19.0335  3.61363228358108

Acompanhe ARIANE 44L DEB em tempo real com AllMySat

Download on the App Store